Vacaville, CA

1:13 AM PDT on April 26, 2017 (GMT -0700)
Nut Tree

Weather History for KVCB - December, 2012

Change the Weather History Date:

Wednesday, December 26, 2012

  Actual Average Record
Temperature  
Mean Temperature 46 °F -  
Max Temperature 55 °F 52 °F 76 °F (1967)
Min Temperature 37 °F 34 °F 20 °F (1976)
Degree Days  
Heating Degree Days 19    
Moisture  
Dew Point 41 °F    
Average Humidity 87    
Maximum Humidity 100    
Minimum Humidity 57    
Precipitation  
Precipitation 0.01 in - - ()
Sea Level Pressure  
Sea Level Pressure 29.97 in    
Wind  
Wind Speed 5 mph (SW)    
Max Wind Speed 12 mph    
Max Gust Speed 17 mph    
Visibility 10 miles    
Events      
Averages and records for this station are not official NWS values.
T = Trace of Precipitation, MM = Missing Value Source: NWS Daily Summary

Daily Weather History Graph

Daily Weather History Graph

Search for Another Location

Airport or City:

Trip Planner

Search our weather history database for the weather conditions in past years. The results will help you decide how hot, cold, wet, or windy it might be!

Date:

Astronomy

Dec. 26, 2012 Rise Set
Actual Time 7:23 AM PST 4:53 PM PST
Civil Twilight 6:53 AM PST 5:23 PM PST
Nautical Twilight 6:20 AM PST 5:56 PM PST
Astronomical Twilight 5:48 AM PST 6:29 PM PST
Moon 3:51 PM PST 5:51 AM PST
Length of Visible Light 10h 29m
Length of Day
9h 30m
Waxing Gibbous, 98% of the Moon is Illuminated
Dec 26
Waxing Gibbous
Dec 28
Full
Jan 4
Last Quarter
Jan 11
New
Jan 18
First Quarter

Hourly Weather History & Observations

Time (PST) Temp. Windchill Dew Point Humidity Pressure Visibility Wind Dir Wind Speed Gust Speed Precip Events Conditions
1:53 AM 46.0 °F 41.9 °F 43.0 °F 89% 29.86 in 10.0 mi SSW 8.1 mph - N/A   Partly Cloudy
2:53 AM 45.0 °F 41.2 °F 42.1 °F 90% 29.87 in 10.0 mi WSW 6.9 mph - N/A   Clear
3:53 AM 44.1 °F - 41.0 °F 89% 29.86 in 10.0 mi Calm Calm - N/A   Clear
4:53 AM 45.0 °F 41.2 °F 42.1 °F 90% 29.87 in 10.0 mi SW 6.9 mph - 0.01 in   Partly Cloudy
5:53 AM 45.0 °F 40.6 °F 42.1 °F 90% 29.88 in 10.0 mi WSW 8.1 mph - N/A   Mostly Cloudy
6:53 AM 45.0 °F 40.6 °F 42.1 °F 90% 29.89 in 10.0 mi WSW 8.1 mph - N/A   Partly Cloudy
7:53 AM 46.0 °F 41.9 °F 41.0 °F 83% 29.91 in 10.0 mi SW 8.1 mph - N/A   Scattered Clouds
8:53 AM 46.0 °F 44.8 °F 42.1 °F 86% 29.94 in 10.0 mi SSE 3.5 mph - N/A   Partly Cloudy
9:53 AM 46.9 °F - 43.0 °F 86% 29.95 in 10.0 mi South 8.1 mph - N/A   Scattered Clouds
10:53 AM 50.0 °F - 42.1 °F 74% 29.95 in 10.0 mi WSW 11.5 mph - N/A   Clear
11:53 AM 54.0 °F - 41.0 °F 62% 29.94 in 10.0 mi West 9.2 mph 17.3 mph N/A   Clear
12:53 PM 55.9 °F - 41.0 °F 57% 29.94 in 10.0 mi WNW 8.1 mph - N/A   Partly Cloudy
1:53 PM 52.0 °F - 44.1 °F 74% 29.96 in 10.0 mi Variable 3.5 mph - N/A   Clear
2:53 PM 51.1 °F - 44.1 °F 77% 29.97 in 10.0 mi Variable 3.5 mph - N/A   Partly Cloudy
3:53 PM 48.0 °F - 43.0 °F 83% 29.99 in 10.0 mi Calm Calm - N/A   Partly Cloudy
4:53 PM 45.0 °F - 42.1 °F 90% 30.01 in 10.0 mi Calm Calm - N/A   Partly Cloudy
5:53 PM 43.0 °F - 41.0 °F 93% 30.03 in 10.0 mi Calm Calm - N/A   Clear
6:53 PM 39.0 °F - 39.0 °F 100% 30.04 in 10.0 mi Calm Calm - N/A   Clear
7:53 PM 37.9 °F - 37.9 °F 100% 30.05 in 9.0 mi Calm Calm - N/A   Clear
8:53 PM 37.9 °F - 37.9 °F 100% 30.06 in 10.0 mi Calm Calm - N/A   Clear
9:53 PM 37.9 °F - 37.0 °F 97% 30.09 in 10.0 mi Calm Calm - N/A   Clear
10:53 PM 37.9 °F - 37.9 °F 100% 30.10 in 10.0 mi Calm Calm - N/A   Clear
11:53 PM 39.0 °F - 37.9 °F 96% 30.10 in 10.0 mi Calm Calm - N/A   Clear